DW9918 Weather Reports


Display with metric or nautical units.
time (UTC)temp
F
wind
direction
speed
MPH
gust
MPH
rain 1hr
in
rain 24hr
in
rain mn
in
humidity
%
barometer
mb
20260906052137 72 228 1.0 2.0 0.00 0.00 0.00 91 1020.5
20260906051523 71 221 0.0 3.0 0.00 0.00 0.00 91 1020.5
20260906051135 72 231 2.0 3.0 0.00 0.00 0.00 92 1020.5
20260906050126 72 237 1.0 3.0 0.00 0.00 0.00 92 1020.4
20260906050032 71 234 1.0 3.0 0.00 0.00 0.00 92 1020.4
20260906045135 72 221 2.0 3.0 0.00 0.00 0.00 91 1020.2
20260906044532 72 229 1.0 3.0 0.00 0.00 0.00 89 1020.2
20260906044137 73 257 0.0 1.0 0.00 0.00 0.00 91 1020.1
20260906043127 74 258 0.0 0.0 0.00 0.00 0.00 91 1020.1
20260906043010 73 258 0.0 0.0 0.00 0.00 0.00 91 1020.0
20260906042128 74 258 0.0 1.0 0.00 0.00 0.00 91 1019.8
20260906041534 73 255 0.0 1.0 0.00 0.00 0.00 91 1019.8
20260906041133 74 255 0.0 1.0 0.00 0.00 0.00 91 1019.8
20260906040143 74 267 1.0 1.0 0.00 0.00 0.00 90 1019.7
20260906040034 74 268 0.0 1.0 0.00 0.00 0.00 88 1019.7
20260906035155 76 45 0.0 0.0 0.00 0.00 0.00 89 1019.6
20260906034531 75 44 0.0 1.0 0.00 0.00 0.00 89 1019.5
20260906034134 76 44 0.0 1.0 0.00 0.00 0.00 89 1019.4
20260906033131 76 44 0.0 0.0 0.00 0.00 0.00 89 1019.5
20260906033037 76 44 0.0 0.0 0.00 0.00 0.00 89 1019.4
20260906032137 76 44 0.0 2.0 0.00 0.00 0.00 89 1019.4
20260906031518 76 39 1.0 2.0 0.00 0.00 0.00 88 1019.4
20260906031131 77 41 1.0 2.0 0.00 0.00 0.00 89 1019.4
20260906030139 76 41 2.0 3.0 0.00 0.00 0.00 89 1019.3
20260906030015 76 43 2.0 3.0 0.00 0.00 0.00 88 1019.3
20260906025127 76 48 1.0 3.0 0.00 0.00 0.00 88 1019.3
20260906024532 75 40 2.0 3.0 0.00 0.00 0.00 87 1019.4
20260906024152 76 41 2.0 3.0 0.00 0.00 0.00 88 1019.3
20260906023144 75 32 1.0 2.0 0.00 0.00 0.00 88 1019.3
20260906023035 75 26 1.0 2.0 0.00 0.00 0.00 88 1019.3
20260906022138 75 21 0.0 2.0 0.00 0.00 0.00 89 1019.3
20260906021531 75 22 1.0 3.0 0.00 0.00 0.00 89 1019.3
20260906021130 75 18 2.0 3.0 0.00 0.00 0.00 90 1019.2
20260906020137 75 345 2.0 2.0 0.00 0.00 0.00 91 1019.1
20260906020027 74 345 1.0 2.0 0.00 0.00 0.00 90 1019.1
20260906015132 75 359 1.0 2.0 0.00 0.00 0.00 91 1019.0
20260906014531 74 349 0.0 1.0 0.00 0.00 0.00 91 1019.0
20260906014130 74 349 0.0 2.0 0.00 0.00 0.00 91 1019.0
20260906013205 74 20 1.0 2.0 0.00 0.00 0.00 93 1018.9
20260906013024 73 4 0.0 2.0 0.00 0.00 0.00 92 1018.9
20260906011539 72 354 3.0 5.0 0.00 0.00 0.00 90 1018.9
20260906011143 73 355 3.0 5.0 0.00 0.00 0.00 90 1018.8
20260906010133 73 246 0.0 3.0 0.00 0.00 0.00 87 1018.7
20260906010036 72 246 1.0 3.0 0.00 0.00 0.00 88 1018.6
20260906005134 74 223 2.0 3.0 0.00 0.00 0.00 89 1018.7
20260906004506 73 215 2.0 3.0 0.00 0.00 0.00 89 1018.7
20260906004137 74 230 1.0 2.0 0.00 0.00 0.00 88 1018.6
20260906003137 76 68 0.0 0.0 0.00 0.00 0.00 88 1018.6
20260906003006 75 68 0.0 0.0 0.00 0.00 0.00 87 1018.7
20260906002139 76 68 0.0 0.0 0.00 0.00 0.00 88 1018.7
20260906001504 76 68 0.0 0.0 0.00 0.00 0.00 88 1018.8
20260906001133 77 68 0.0 0.0 0.00 0.00 0.00 88 1018.7
20260906000142 77 67 0.0 0.0 0.00 0.00 0.00 88 1018.7
20260906000004 76 67 0.0 0.0 0.00 0.00 0.00 88 1018.7
20260905235136 77 67 0.0 0.0 0.00 0.00 0.00 87 1018.7
20260905234507 77 67 0.0 0.0 0.00 0.00 0.00 86 1018.8
20260905234129 78 68 0.0 0.0 0.00 0.00 0.00 87 1018.6
20260905233136 78 68 0.0 0.0 0.00 0.00 0.00 87 1018.6
20260905233005 77 68 0.0 0.0 0.00 0.00 0.00 86 1018.6
20260905232139 78 66 0.0 1.0 0.00 0.00 0.00 86 1018.6
20260905231504 77 68 0.0 2.0 0.00 0.00 0.00 85 1018.7
20260905231153 78 69 0.0 3.0 0.00 0.00 0.00 86 1018.6
20260905230008 77 61 0.0 2.0 0.00 0.00 0.00 85 1018.7
20260905225154 78 46 1.0 2.0 0.00 0.00 0.00 85 1018.6
20260905224508 77 34 1.0 3.0 0.00 0.00 0.00 84 1018.6
20260905224129 78 34 0.0 4.0 0.00 0.00 0.00 84 1018.5
20260905223134 78 10 1.0 2.0 0.00 0.00 0.00 83 1018.6
20260905223006 77 17 1.0 2.0 0.00 0.00 0.00 83 1018.6
20260905222148 78 86 0.0 2.0 0.00 0.00 0.00 83 1018.4
20260905221513 78 40 1.0 2.0 0.00 0.00 0.00 82 1018.5
20260905221133 79 84 0.0 2.0 0.00 0.00 0.00 82 1018.3
20260905220140 78 86 0.0 2.0 0.00 0.00 0.00 82 1018.3
20260905220010 78 60 0.0 2.0 0.00 0.00 0.00 81 1018.3
20260905215131 79 94 1.0 2.0 0.00 0.00 0.00 82 1018.2
20260905214513 78 88 0.0 1.0 0.00 0.00 0.00 82 1018.2
20260905214127 78 89 0.0 1.0 0.00 0.00 0.00 82 1018.1
20260905213128 79 93 0.0 3.0 0.00 0.00 0.00 81 1018.1
20260905213012 78 91 0.0 4.0 0.00 0.00 0.00 81 1018.2
20260905212134 79 82 3.0 4.0 0.00 0.00 0.00 81 1018.0
20260905211511 78 86 2.0 4.0 0.00 0.00 0.00 80 1018.0
20260905211139 79 84 2.0 4.0 0.00 0.00 0.00 80 1018.0
20260905210127 79 79 5.0 5.0 0.00 0.00 0.00 80 1017.9
20260905210011 78 84 5.0 5.0 0.00 0.00 0.00 79 1018.0
20260905205132 79 91 4.0 5.0 0.00 0.00 0.00 79 1018.0
20260905204517 79 87 3.0 5.0 0.00 0.00 0.00 77 1018.0
20260905204135 80 77 3.0 5.0 0.00 0.00 0.00 78 1018.0
20260905203138 80 83 2.0 5.0 0.00 0.00 0.00 77 1018.0
20260905203014 79 84 2.0 5.0 0.00 0.00 0.00 76 1018.0
20260905202134 80 79 4.0 4.0 0.00 0.00 0.00 76 1018.0
20260905201512 80 91 3.0 4.0 0.00 0.00 0.00 75 1017.9
20260905201139 80 88 3.0 4.0 0.00 0.00 0.00 75 1018.0
20260905200133 80 84 3.0 4.0 0.00 0.00 0.00 75 1017.9
20260905200015 79 82 3.0 4.0 0.00 0.00 0.00 74 1017.8
20260905195139 80 82 4.0 4.0 0.00 0.00 0.00 75 1017.8
20260905194516 79 90 2.0 3.0 0.00 0.00 0.00 73 1017.7
20260905194144 80 92 2.0 2.0 0.00 0.00 0.00 73 1017.8
20260905193204 80 90 0.0 3.0 0.00 0.00 0.00 72 1017.7
20260905193015 79 90 0.0 3.0 0.00 0.00 0.00 71 1017.6
20260905192125 81 84 2.0 4.0 0.00 0.00 0.00 71 1017.7
20260905191515 80 91 3.0 5.0 0.00 0.00 0.00 70 1017.5
20260905191131 80 84 3.0 5.0 0.00 0.00 0.00 70 1017.5
20260905190140 81 94 3.0 4.0 0.00 0.00 0.00 70 1017.5
20260905190018 80 83 3.0 4.0 0.00 0.00 0.00 69 1017.4
20260905185139 81 84 0.0 4.0 0.00 0.00 0.00 67 1017.3
20260905184518 81 106 3.0 5.0 0.00 0.00 0.00 66 1017.1
20260905184148 82 117 3.0 5.0 0.00 0.00 0.00 66 1017.1
20260905183152 82 105 0.0 4.0 0.00 0.00 0.00 65 1017.0
20260905183018 82 111 0.0 4.0 0.00 0.00 0.00 64 1016.8
20260905182201 83 82 1.0 4.0 0.00 0.00 0.00 64 1016.9
20260905181518 82 93 2.0 6.0 0.00 0.00 0.00 62 1016.7
20260905181138 83 98 3.0 6.0 0.00 0.00 0.00 62 1016.9
20260905180135 84 120 5.0 10.0 0.00 0.00 0.00 62 1016.8
20260905180024 83 102 6.0 10.0 0.00 0.00 0.00 62 1016.5
20260905175135 84 85 5.0 10.0 0.00 0.00 0.00 62 1016.7
20260905174507 84 108 5.0 9.0 0.00 0.00 0.00 61 1016.4
20260905174134 84 104 4.0 8.0 0.00 0.00 0.00 62 1016.5
20260905173130 85 85 3.0 6.0 0.00 0.00 0.00 61 1016.4
20260905173006 84 98 3.0 8.0 0.00 0.00 0.00 61 1016.2
20260905172134 86 93 6.0 9.0 0.00 0.00 0.00 59 1016.3
20260905171503 85 106 5.0 11.0 0.00 0.00 0.00 56 1016.1
20260905171143 86 103 5.0 12.0 0.00 0.00 0.00 54 1016.2
20260905170153 86 91 11.0 13.0 0.00 0.00 0.00 53 1016.2
20260905170023 86 84 10.0 13.0 0.00 0.00 0.00 52 1016.0
20260905165127 86 101 7.0 14.0 0.00 0.00 0.00 58 1016.1
20260905164520 85 99 8.0 14.0 0.00 0.00 0.00 57 1016.0
20260905164152 86 98 9.0 14.0 0.00 0.00 0.00 58 1016.1
20260905163141 87 91 10.0 14.0 0.00 0.00 0.00 58 1016.0
20260905163016 86 96 9.0 14.0 0.00 0.00 0.00 58 1015.9
20260905162148 87 74 10.0 14.0 0.00 0.00 0.00 57 1016.0
20260905161510 87 89 9.0 15.0 0.00 0.00 0.00 58 1015.8
20260905161129 88 114 9.0 15.0 0.00 0.00 0.00 56 1015.8
20260905160132 88 101 10.0 15.0 0.00 0.00 0.00 57 1015.7
20260905160011 87 94 9.0 14.0 0.00 0.00 0.00 57 1015.7
20260905155143 88 76 7.0 15.0 0.00 0.00 0.00 58 1015.7
20260905154526 88 89 11.0 15.0 0.00 0.00 0.00 56 1015.5
20260905154127 89 84 11.0 17.0 0.00 0.00 0.00 55 1015.6
20260905153203 89 96 13.0 17.0 0.00 0.00 0.00 55 1015.6
20260905153028 89 90 12.0 17.0 0.00 0.00 0.00 56 1015.5
20260905152136 95 75 7.0 10.0 0.00 0.00 0.00 46 1015.5
20260905151523 95 301 3.0 7.0 0.00 0.00 0.00 34 1015.3
20260905151129 96 305 2.0 7.0 0.00 0.00 0.00 35 1015.4
20260905150141 96 231 5.0 8.0 0.00 0.00 0.00 34 1015.5
20260905150018 95 302 4.0 8.0 0.00 0.00 0.00 34 1015.3
20260905145127 96 284 3.0 6.0 0.00 0.00 0.00 34 1015.5
20260905144513 96 250 0.0 7.0 0.00 0.00 0.00 34 1015.3
20260905144132 97 319 3.0 7.0 0.00 0.00 0.00 34 1015.4
20260905143139 96 217 1.0 6.0 0.00 0.00 0.00 34 1015.5
20260905143008 95 180 1.0 8.0 0.00 0.00 0.00 34 1015.4
20260905142155 95 257 5.0 9.0 0.00 0.00 0.00 34 1015.6
20260905141530 95 283 6.0 12.0 0.00 0.00 0.00 34 1015.5
20260905141129 95 294 5.0 12.0 0.00 0.00 0.00 35 1015.5
20260905140126 95 255 4.0 11.0 0.00 0.00 0.00 34 1015.6
20260905140031 94 259 7.0 11.0 0.00 0.00 0.00 34 1015.6
20260905135220 95 295 5.0 12.0 0.00 0.00 0.00 35 1015.8
20260905134529 95 287 7.0 12.0 0.00 0.00 0.00 34 1015.8
20260905134127 95 304 3.0 7.0 0.00 0.00 0.00 36 1016.0
20260905133142 95 205 4.0 9.0 0.00 0.00 0.00 34 1016.1
20260905133023 94 219 4.0 9.0 0.00 0.00 0.00 35 1015.9
20260905132147 94 261 0.0 11.0 0.00 0.00 0.00 36 1016.1
20260905131516 94 304 7.0 11.0 0.00 0.00 0.00 35 1016.1
20260905131200 94 316 4.0 9.0 0.00 0.00 0.00 35 1016.2
20260905130129 94 300 7.0 10.0 0.00 0.00 0.00 34 1016.2
20260905130015 93 245 7.0 10.0 0.00 0.00 0.00 34 1016.2
20260905125136 93 309 4.0 13.0 0.00 0.00 0.00 35 1016.3
20260905124538 93 306 3.0 10.0 0.00 0.00 0.00 36 1016.4
20260905124126 94 264 6.0 10.0 0.00 0.00 0.00 34 1016.5
20260905123137 93 321 4.0 13.0 0.00 0.00 0.00 35 1016.6
20260905123032 93 283 3.0 13.0 0.00 0.00 0.00 35 1016.6
20260905122141 93 304 7.0 14.0 0.00 0.00 0.00 35 1016.7
20260905121529 92 266 7.0 14.0 0.00 0.00 0.00 35 1016.6
20260905121129 92 299 2.0 9.0 0.00 0.00 0.00 37 1016.7
20260905120126 92 294 7.0 14.0 0.00 0.00 0.00 37 1016.8
20260905120027 92 292 9.0 14.0 0.00 0.00 0.00 36 1016.7
20260905115136 93 289 5.0 12.0 0.00 0.00 0.00 37 1016.9
20260905114522 92 312 4.0 9.0 0.00 0.00 0.00 37 1016.7
20260905114155 92 297 3.0 10.0 0.00 0.00 0.00 37 1016.8
20260905113129 92 307 8.0 13.0 0.00 0.00 0.00 36 1017.0
20260905113018 91 295 8.0 13.0 0.00 0.00 0.00 36 1016.8
20260905112144 91 304 6.0 13.0 0.00 0.00 0.00 38 1017.1
20260905111534 91 300 3.0 16.0 0.00 0.00 0.00 37 1016.9
20260905111130 92 330 4.0 16.0 0.00 0.00 0.00 38 1017.1
20260905110126 91 264 5.0 12.0 0.00 0.00 0.00 37 1017.2
20260905110033 90 286 7.0 13.0 0.00 0.00 0.00 37 1017.1
20260905105129 91 283 6.0 13.0 0.00 0.00 0.00 38 1017.1
20260905104507 90 277 11.0 14.0 0.00 0.00 0.00 37 1017.1
20260905104133 91 266 10.0 14.0 0.00 0.00 0.00 37 1017.2
20260905103126 90 311 8.0 16.0 0.00 0.00 0.00 38 1017.3
20260905103009 90 314 9.0 16.0 0.00 0.00 0.00 36 1017.1
20260905102129 90 314 11.0 16.0 0.00 0.00 0.00 37 1017.3
20260905101504 89 271 7.0 14.0 0.00 0.00 0.00 36 1017.0
20260905101202 90 304 10.0 15.0 0.00 0.00 0.00 37 1017.2
20260905100129 90 276 7.0 13.0 0.00 0.00 0.00 40 1017.2
20260905100003 89 308 5.0 14.0 0.00 0.00 0.00 41 1017.0
20260905095134 90 240 8.0 18.0 0.00 0.00 0.00 40 1017.4
20260905094508 89 304 8.0 13.0 0.00 0.00 0.00 42 1017.0
20260905094149 89 255 9.0 13.0 0.00 0.00 0.00 42 1017.3
20260905093141 89 282 6.0 12.0 0.00 0.00 0.00 45 1017.3
20260905093012 88 312 6.0 12.0 0.00 0.00 0.00 44 1017.2
20260905092135 88 302 8.0 14.0 0.00 0.00 0.00 45 1017.4
20260905091511 87 288 10.0 14.0 0.00 0.00 0.00 45 1017.3
20260905091134 88 293 7.0 11.0 0.00 0.00 0.00 46 1017.3
20260905090141 87 297 7.0 12.0 0.00 0.00 0.00 46 1017.3
20260905090006 86 280 7.0 12.0 0.00 0.00 0.00 46 1017.1
20260905085130 87 288 8.0 12.0 0.00 0.00 0.00 46 1017.2
20260905084505 86 297 9.0 15.0 0.00 0.00 0.00 45 1017.0
20260905084135 87 285 9.0 15.0 0.00 0.00 0.00 46 1017.1
20260905083143 86 284 11.0 14.0 0.00 0.00 0.00 47 1017.1
20260905083004 86 302 11.0 14.0 0.00 0.00 0.00 46 1016.8
20260905082125 86 276 8.0 13.0 0.00 0.00 0.00 45 1016.9
20260905081505 86 291 9.0 12.0 0.00 0.00 0.00 45 1016.7
20260905081132 86 281 9.0 12.0 0.00 0.00 0.00 46 1016.8
20260905080126 86 318 9.0 12.0 0.00 0.00 0.00 47 1016.7
20260905080018 85 307 8.0 12.0 0.00 0.00 0.00 48 1016.6
20260905075131 85 273 6.0 8.0 0.00 0.00 0.00 50 1016.7
20260905074514 84 302 3.0 5.0 0.00 0.00 0.00 53 1016.4
20260905074126 84 274 2.0 5.0 0.00 0.00 0.00 53 1016.5
20260905073129 83 236 2.0 5.0 0.00 0.00 0.00 56 1016.5
20260905073008 83 259 2.0 5.0 0.00 0.00 0.00 55 1016.4
20260905072138 82 212 3.0 5.0 0.00 0.00 0.00 57 1016.5
20260905071504 81 281 3.0 7.0 0.00 0.00 0.00 58 1016.4
20260905071131 81 239 3.0 6.0 0.00 0.00 0.00 59 1016.6
20260905070153 81 223 2.0 3.0 0.00 0.00 0.00 59 1016.4
20260905070005 80 243 1.0 3.0 0.00 0.00 0.00 60 1016.1
20260905065137 80 224 2.0 5.0 0.00 0.00 0.00 63 1016.3
20260905064524 78 243 1.0 4.0 0.00 0.00 0.00 64 1016.1
20260905064131 78 238 1.0 4.0 0.00 0.00 0.00 66 1016.3
20260905063135 76 177 1.0 4.0 0.00 0.00 0.00 69 1016.3
20260905063021 76 214 1.0 4.0 0.00 0.00 0.00 69 1016.1
20260905062132 75 222 2.0 4.0 0.00 0.00 0.00 71 1016.3
20260905061517 74 241 1.0 3.0 0.00 0.00 0.00 70 1016.1
20260905061157 75 214 0.0 3.0 0.00 0.00 0.00 71 1016.3
20260905060131 74 155 2.0 3.0 0.00 0.00 0.00 72 1016.1
20260905060013 73 160 2.0 3.0 0.00 0.00 0.00 71 1016.0
20260905055138 73 151 1.0 3.0 0.00 0.00 0.00 72 1016.3
20260905054508 72 139 0.0 3.0 0.00 0.00 0.00 72 1016.1
20260905054128 73 191 2.0 3.0 0.00 0.00 0.00 71 1016.3
20260905053129 74 165 0.0 0.0 0.00 0.00 0.00 72 1016.3
20260905053007 73 165 0.0 0.0 0.00 0.00 0.00 72 1016.1